Weather in Kandyagash

Kazakhstan     49°27′12″N   57°24′24″E
В апреле 2022 года жителям России запретили посещать сайт meteo.paraplan.net по решению Генеральной прокуратуры. Аудитория сайта уменьшилась в 10 раз. Владельцы сайта не видят смысла в поддержке погодного сервера в таких условиях. Сайт будет закрыт в октябре.
temp.,
°C
wind,
m/s
gust,
m/s
humid.,
%
clouds,
%
prec.,
mm/h
press.,
hPa
HPBL,
m
5 october, wed
wed523:00+7ese512255 0.0 1033217
02:00+6ese511287 0.0 1034204
05:00+5se49295 0.0 1035145
08:00+4se51028100 0.0 1034180
11:00+13sse71016100 0.0 1033504
14:00+17sse791099 0.0 1032983
17:00+18s6811100 0.0 10311040
20:00+13sse5915100 0.0 1031133
6 october, thu
thu623:00+11sse5121695 0.0 1030194
02:00+9sse51122100 0.0 1030201
05:00+8sse51127100 0.0 1029193
08:00+8sse51323100 0.0 1028250
11:00+14s81217100 0.0 1026578
14:00+18s81013100 0.0 10241004
17:00+19ssw71014100 0.0 10221320
20:00+14s41019100 0.0 1022153
7 october, fri
fri723:00+14ssw61220100 0.0 1021353
02:00+11nnw2248100 0.1 102067
05:00+10se3461100 0.4 1020110
08:00+10s364894 0.0 1019203
11:00+13w455759 0.0 1018889
14:00+14wnw674896 0.1 10171682
17:00+14nw78384 0.1 10181771
20:00+10nw510490 0.0 1020306
8 october, sat
sat823:00+8wnw49580 0.0 1021193
02:00+7w46645 0.0 1021114
05:00+8wsw5105526 0.0 1020360
08:00+9wsw71453100 0.0 1020503
11:00+13wnw9135589 0.1 10211569
14:00+15nw911375 0.0 10211800
17:00+15nw910395 0.0 10221819
20:00+10n48581 0.0 1025182
9 october, sun
sun923:00+8nnw34670 0.0 102664
02:00+7nnw33770 0.0 102833
05:00+5nnw22850 0.0 102910
08:00+6nnw11830 0.0 103010
11:00+11w01550 0.0 1030523
14:00+14sw22380 0.0 10291029
17:00+16wsw22320 0.0 10281116
20:00+11s22440 0.0 102910